Location: Grantsboro
(35.1404°N, 76.8424°W)
Time: 17:15:25
(UTC+00:00)

STARLINK-71 - Pass Details

Date: 18 January 2020
Orbit: 528 x 531 km, 53.0° (Epoch: 19 February)

Event Time Altitude Azimuth Distance (km) Brightness Sun altitude
Exits shadow 11:00:00 - 225° (SW) 1,891 6.1 -15.1°
Reaches altitude 10° 11:00:19 10° 225° (SW) 1,766 5.9 -15.1°
Maximum altitude 11:04:20 88° 312° (NW) 534 3.5 -14.3°
Drops below altitude 10° 11:08:22 10° 45° (NE) 1,778 6.6 -13.5°
Sets 11:10:35 0° 46° (NE) 2,672 7.6 -13.1°
